Mobile Site You Are Here > > > > Adrian Marin 2013 Minor League Gamelogs & Splits


Adrian Marin

Adrian Marin

Position: Shortstop
Bats: Right, Throws: Right
Height: 6' 0", Weight: 180 lb.

Born: March 8, 1994 in Miami, Florida, US
High School: Gulliver Prep (Miami, FL)

Drafted by the Baltimore Orioles in the 3rd round of the 2012 MLB June Amateur Draft from Gulliver Prep (Miami, FL).

Adrian Marin
/ Gamelogs & Splits
 Batting: 2015 / 2014 / 2013 / 2012

2013 Player Batting Gamelog

Rk Date Lev Tm   Opp PA AB R H 2B 3B HR RBI BB IBB SO HBP SH SF GDP SB CS Pos E
1 2013-04-04 A-SALL Delmarva Shorebirds Hagerstown Suns 3 2 0 1 0 0 0 0 1 0 1 0 0 0 0 1 0 SS 0
2 2013-04-06 A-SALL Delmarva Shorebirds Hagerstown Suns 3 3 0 0 0 0 0 0 0 0 2 0 0 0 0 0 0 SS 1
3 2013-04-07 A-SALL Delmarva Shorebirds Hagerstown Suns 4 3 0 0 0 0 0 0 0 0 0 1 0 0 0 0 0 SS 0
4 2013-04-08 A-SALL Delmarva Shorebirds Kannapolis Intimidators 4 3 0 3 1 0 0 2 1 0 0 0 0 0 0 1 0 SS 0
5 2013-04-09 A-SALL Delmarva Shorebirds Kannapolis Intimidators 4 4 0 1 0 0 0 0 0 0 1 0 0 0 0 0 0 SS 0
6 2013-04-10 A-SALL Delmarva Shorebirds Kannapolis Intimidators 4 4 0 2 0 0 0 0 0 0 0 0 0 0 0 0 0 SS 1
7 2013-04-11 A-SALL Delmarva Shorebirds @ Hagerstown Suns 4 3 0 0 0 0 0 1 0 0 2 0 0 1 0 0 0 SS 1
8 2013-04-12 A-SALL Delmarva Shorebirds @ Hagerstown Suns 1 1 0 0 0 0 0 0 0 0 0 0 0 0 0 0 0 SS 0
9 2013-04-16 A-SALL Delmarva Shorebirds @ Kannapolis Intimidators 4 4 0 2 1 1 0 1 0 0 0 0 0 0 0 0 0 SS 0
10 2013-04-17 A-SALL Delmarva Shorebirds @ Kannapolis Intimidators 5 5 1 2 0 0 0 2 0 0 1 0 0 0 1 0 0 SS 0
11 2013-04-18 A-SALL Delmarva Shorebirds Greensboro Grasshoppers 4 4 0 1 0 0 0 1 0 0 2 0 0 0 0 0 0 SS 0
12 2013-04-19 A-SALL Delmarva Shorebirds Greensboro Grasshoppers 3 3 0 0 0 0 0 0 0 0 1 0 0 0 0 0 0 SS 0
13 2013-04-20 A-SALL Delmarva Shorebirds Greensboro Grasshoppers 4 3 0 0 0 0 0 0 1 0 2 0 0 0 0 0 0 SS 1
14 2013-04-23 A-SALL Delmarva Shorebirds @ Savannah Sand Gnats 4 4 0 1 0 0 0 0 0 0 0 0 0 0 0 1 0 SS 0
15 2013-04-24 A-SALL Delmarva Shorebirds @ Savannah Sand Gnats 4 4 0 0 0 0 0 1 0 0 0 0 0 0 0 0 0 SS 0
16 2013-04-25 A-SALL Delmarva Shorebirds @ Savannah Sand Gnats 4 4 0 1 0 0 0 0 0 0 2 0 0 0 0 0 0 SS 0
17 2013-04-26 A-SALL Delmarva Shorebirds @ Greenville Drive 6 5 0 0 0 0 0 1 0 0 0 0 0 1 0 0 0 SS 0
18 2013-04-27 A-SALL Delmarva Shorebirds @ Greenville Drive 5 5 0 0 0 0 0 1 0 0 0 0 0 0 0 0 0 SS 0
19 2013-04-29 A-SALL Delmarva Shorebirds @ Greenville Drive 4 4 0 1 0 0 0 0 0 0 1 0 0 0 0 0 1 SS 0
20 2013-04-29 (2) A-SALL Delmarva Shorebirds @ Greenville Drive 3 2 0 0 0 0 0 0 0 0 2 1 0 0 0 0 0 SS 0
21 2013-05-01 A-SALL Delmarva Shorebirds Lexington Legends 4 4 0 0 0 0 0 0 0 0 2 0 0 0 0 0 0 SS 1
22 2013-05-02 A-SALL Delmarva Shorebirds Lexington Legends 4 4 0 0 0 0 0 0 0 0 4 0 0 0 0 0 0 SS 0
23 2013-05-03 A-SALL Delmarva Shorebirds Lexington Legends 4 4 0 1 0 0 0 0 0 0 0 0 0 0 0 0 0 SS 0
24 2013-05-04 A-SALL Delmarva Shorebirds Charleston RiverDogs 4 4 0 1 0 0 0 1 0 0 2 0 0 0 0 0 0 SS 0
25 2013-05-05 A-SALL Delmarva Shorebirds Charleston RiverDogs 4 4 0 1 0 0 0 0 0 0 1 0 0 0 0 0 0 SS 1
26 2013-05-06 A-SALL Delmarva Shorebirds Charleston RiverDogs 4 4 1 0 0 0 0 1 0 0 0 0 0 0 0 0 0 SS 0
27 2013-05-09 A-SALL Delmarva Shorebirds @ Hagerstown Suns 4 3 0 2 0 0 0 0 1 0 1 0 0 0 0 0 0 SS 0
28 2013-05-12 A-SALL Delmarva Shorebirds @ Hagerstown Suns 4 3 2 2 0 0 0 0 1 0 0 0 0 0 0 0 0 SS 0
29 2013-05-12 (2) A-SALL Delmarva Shorebirds @ Hagerstown Suns 4 3 1 1 1 0 0 1 0 0 1 1 0 0 0 0 0 SS 0
30 2013-05-13 A-SALL Delmarva Shorebirds @ Lakewood BlueClaws 3 3 1 2 1 1 0 0 0 0 1 0 0 0 0 0 0 SS 0
31 2013-05-14 A-SALL Delmarva Shorebirds @ Lakewood BlueClaws 6 4 0 2 0 0 0 1 2 0 1 0 0 0 0 1 0 SS 0
32 2013-05-15 A-SALL Delmarva Shorebirds @ Lakewood BlueClaws 4 3 0 2 0 0 0 1 1 0 0 0 0 0 0 0 1 SS 0
33 2013-05-16 A-SALL Delmarva Shorebirds Hickory Crawdads 4 3 0 1 0 0 0 0 1 0 2 0 0 0 0 0 0 SS 0
34 2013-05-17 A-SALL Delmarva Shorebirds Hickory Crawdads 4 3 1 1 0 0 0 0 0 0 1 0 1 0 0 0 0 SS 0
35 2013-05-19 A-SALL Delmarva Shorebirds Hickory Crawdads 2 2 0 0 0 0 0 0 0 0 1 0 0 0 0 0 0 SS 0
36 2013-05-19 (2) A-SALL Delmarva Shorebirds Hickory Crawdads 2 2 0 0 0 0 0 0 0 0 2 0 0 0 0 0 0 SS 0
37 2013-05-20 A-SALL Delmarva Shorebirds Lakewood BlueClaws 3 3 0 1 0 0 0 0 0 0 0 0 0 0 0 0 0 SS 0
38 2013-05-21 A-SALL Delmarva Shorebirds Lakewood BlueClaws 4 4 0 2 0 0 0 0 0 0 1 0 0 0 0 0 0 SS 0
39 2013-05-23 A-SALL Delmarva Shorebirds @ Greensboro Grasshoppers 4 4 1 1 0 0 0 0 0 0 1 0 0 0 0 0 0 SS 1
40 2013-05-24 A-SALL Delmarva Shorebirds @ Greensboro Grasshoppers 4 4 0 0 0 0 0 0 0 0 0 0 0 0 0 0 0 SS 0
41 2013-05-25 A-SALL Delmarva Shorebirds @ Greensboro Grasshoppers 3 2 1 1 0 0 1 2 1 0 0 0 0 0 0 0 0 SS 0
42 2013-05-26 A-SALL Delmarva Shorebirds @ Greensboro Grasshoppers 4 4 1 1 0 0 0 0 0 0 0 0 0 0 0 0 0 SS 0
43 2013-05-27 A-SALL Delmarva Shorebirds @ Lakewood BlueClaws 3 3 0 0 0 0 0 0 0 0 0 0 0 0 0 0 0 SS 0
44 2013-05-29 A-SALL Delmarva Shorebirds @ Lakewood BlueClaws 4 4 1 2 1 0 0 1 0 0 0 0 0 0 0 0 0 SS 0
45 2013-05-30 A-SALL Delmarva Shorebirds Greensboro Grasshoppers 4 4 1 1 1 0 0 0 0 0 1 0 0 0 0 0 0 SS 1
46 2013-05-31 A-SALL Delmarva Shorebirds Greensboro Grasshoppers 5 4 2 3 1 0 0 2 1 0 0 0 0 0 0 0 0 SS 0
47 2013-06-01 A-SALL Delmarva Shorebirds Greensboro Grasshoppers 4 4 1 1 0 0 0 1 0 0 2 0 0 0 0 1 0 SS 0
48 2013-06-04 A-SALL Delmarva Shorebirds @ West Virginia Power 4 4 1 0 0 0 0 0 0 0 2 0 0 0 1 0 0 SS 1
49 2013-06-05 A-SALL Delmarva Shorebirds @ West Virginia Power 2 2 0 0 0 0 0 0 0 0 0 0 0 0 0 0 0 SS 0
50 2013-06-09 A-SALL Delmarva Shorebirds Lakewood BlueClaws 3 2 0 0 0 0 0 0 0 0 1 1 0 0 0 0 0 SS 0
51 2013-06-11 A-SALL Delmarva Shorebirds West Virginia Power 3 3 0 1 0 0 0 0 0 0 1 0 0 0 0 0 0 SS 0
52 2013-06-11 (2) A-SALL Delmarva Shorebirds West Virginia Power 3 3 0 1 1 0 0 0 0 0 0 0 0 0 0 0 0 SS 0
53 2013-06-12 A-SALL Delmarva Shorebirds West Virginia Power 3 3 0 1 0 0 0 0 0 0 2 0 0 0 0 1 0 SS 0
54 2013-06-13 A-SALL Delmarva Shorebirds @ Hickory Crawdads 4 3 0 1 0 0 0 0 1 0 0 0 0 0 0 0 0 SS 1
55 2013-06-14 A-SALL Delmarva Shorebirds @ Hickory Crawdads 4 4 0 1 0 0 0 2 0 0 2 0 0 0 0 0 0 SS 0
56 2013-06-15 A-SALL Delmarva Shorebirds @ Hickory Crawdads 4 4 0 1 0 0 0 0 0 0 1 0 0 0 0 0 0 SS 0
57 2013-06-16 A-SALL Delmarva Shorebirds @ Hickory Crawdads 4 4 0 0 0 0 0 0 0 0 0 0 0 0 0 0 0 SS 0
58 2013-06-20 A-SALL Delmarva Shorebirds Asheville Tourists 4 4 1 2 0 0 0 0 0 0 1 0 0 0 0 0 0 SS 1
59 2013-06-21 A-SALL Delmarva Shorebirds Asheville Tourists 3 3 0 1 1 0 0 0 0 0 0 0 0 0 0 0 0 SS 2
60 2013-06-22 A-SALL Delmarva Shorebirds Asheville Tourists 3 3 0 3 1 0 0 2 0 0 0 0 0 0 0 0 0 SS 0
61 2013-06-23 A-SALL Delmarva Shorebirds Asheville Tourists 4 4 1 2 1 0 0 1 0 0 1 0 0 0 0 0 0 SS 0
62 2013-06-24 A-SALL Delmarva Shorebirds Lakewood BlueClaws 4 3 0 0 0 0 0 0 1 0 3 0 0 0 0 0 0 SS 0
63 2013-06-25 A-SALL Delmarva Shorebirds Lakewood BlueClaws 5 5 0 1 0 0 0 1 0 0 2 0 0 0 0 0 0 SS 0
64 2013-06-27 A-SALL Delmarva Shorebirds @ Greensboro Grasshoppers 6 5 0 1 0 0 0 1 1 0 0 0 0 0 0 0 0 SS 0
65 2013-06-28 A-SALL Delmarva Shorebirds @ Greensboro Grasshoppers 4 4 0 2 1 0 0 2 0 0 0 0 0 0 0 0 0 SS 0
66 2013-06-29 A-SALL Delmarva Shorebirds @ Greensboro Grasshoppers 4 4 0 0 0 0 0 0 0 0 0 0 0 0 0 0 0 SS 1
67 2013-06-30 A-SALL Delmarva Shorebirds @ Greensboro Grasshoppers 5 4 0 0 0 0 0 1 1 0 0 0 0 0 1 0 0 SS 0
68 2013-07-01 A-SALL Delmarva Shorebirds @ Lakewood BlueClaws 4 4 1 1 0 0 0 0 0 0 2 0 0 0 0 0 0 SS 0
69 2013-07-02 A-SALL Delmarva Shorebirds @ Lakewood BlueClaws 3 3 0 0 0 0 0 0 0 0 1 0 0 0 0 0 0 SS 0
70 2013-07-03 A-SALL Delmarva Shorebirds @ Lakewood BlueClaws 4 3 0 1 0 0 0 1 1 0 0 0 0 0 1 0 0 SS 0
71 2013-07-05 A-SALL Delmarva Shorebirds Hagerstown Suns 5 4 0 2 0 0 0 1 1 0 1 0 0 0 0 1 0 SS 0
72 2013-07-06 A-SALL Delmarva Shorebirds Hagerstown Suns 4 4 0 2 1 0 0 0 0 0 2 0 0 0 0 0 0 SS 1
73 2013-07-07 A-SALL Delmarva Shorebirds Hagerstown Suns 5 5 1 2 0 0 0 0 0 0 1 0 0 0 0 0 0 SS 0
74 2013-07-09 A-SALL Delmarva Shorebirds @ Asheville Tourists 4 4 0 1 0 0 0 0 0 0 2 0 0 0 0 0 0 SS 1
75 2013-07-10 A-SALL Delmarva Shorebirds @ Asheville Tourists 4 4 0 1 0 0 0 0 0 0 1 0 0 0 0 0 0 SS 0
76 2013-07-11 A-SALL Delmarva Shorebirds @ Asheville Tourists 3 3 0 1 0 0 0 0 0 0 1 0 0 0 0 0 0 SS 0
77 2013-07-12 A-SALL Delmarva Shorebirds @ Lexington Legends 6 4 0 1 0 0 0 0 1 0 1 0 1 0 0 0 0 SS 1
78 2013-07-13 A-SALL Delmarva Shorebirds @ Lexington Legends 4 3 0 2 0 0 0 0 1 0 0 0 0 0 0 0 1 SS 0
79 2013-07-15 A-SALL Delmarva Shorebirds @ Lexington Legends 3 3 0 0 0 0 0 0 0 0 1 0 0 0 0 0 0 SS 0
80 2013-07-17 A-SALL Delmarva Shorebirds Kannapolis Intimidators 3 3 0 1 0 0 0 0 0 0 0 0 0 0 0 0 0 SS 0
81 2013-07-18 A-SALL Delmarva Shorebirds Kannapolis Intimidators 4 4 1 3 0 0 1 1 0 0 0 0 0 0 0 0 0 SS 0
82 2013-07-19 A-SALL Delmarva Shorebirds Kannapolis Intimidators 3 3 0 2 1 0 0 1 0 0 0 0 0 0 0 0 0 SS 0
83 2013-07-21 A-SALL Delmarva Shorebirds Savannah Sand Gnats 4 4 0 0 0 0 0 0 0 0 1 0 0 0 0 0 0 SS 0
84 2013-07-22 A-SALL Delmarva Shorebirds Savannah Sand Gnats 5 5 0 0 0 0 0 0 0 0 1 0 0 0 0 0 0 SS 0
85 2013-07-23 A-SALL Delmarva Shorebirds Savannah Sand Gnats 5 5 1 4 0 0 0 0 0 0 0 0 0 0 0 1 0 SS 0
86 2013-07-25 A-SALL Delmarva Shorebirds @ Hagerstown Suns 3 3 0 0 0 0 0 0 0 0 1 0 0 0 0 0 0 SS 0
87 2013-07-26 A-SALL Delmarva Shorebirds @ Hagerstown Suns 4 4 0 1 1 0 0 1 0 0 1 0 0 0 0 0 0 SS 0
88 2013-07-27 A-SALL Delmarva Shorebirds @ Hagerstown Suns 3 3 0 1 0 0 0 0 0 0 0 0 0 0 0 0 0 SS 0
89 2013-07-28 A-SALL Delmarva Shorebirds @ Hagerstown Suns 3 3 0 0 0 0 0 0 0 0 1 0 0 0 0 0 0 SS 0
90 2013-08-04 A-SALL Delmarva Shorebirds Greensboro Grasshoppers 4 2 0 1 0 0 0 2 2 0 1 0 0 0 0 0 0 SS 0
91 2013-08-05 A-SALL Delmarva Shorebirds West Virginia Power 4 4 1 1 0 0 0 0 0 0 0 0 0 0 0 0 0 SS 0
92 2013-08-06 A-SALL Delmarva Shorebirds West Virginia Power 4 3 2 3 1 0 0 2 0 0 0 0 0 1 0 0 0 SS 0
93 2013-08-07 A-SALL Delmarva Shorebirds West Virginia Power 4 2 0 0 0 0 0 0 2 0 2 0 0 0 0 0 0 SS 0
94 2013-08-08 A-SALL Delmarva Shorebirds @ Kannapolis Intimidators 4 4 1 1 0 0 1 1 0 0 1 0 0 0 0 0 0 SS 0
95 2013-08-09 A-SALL Delmarva Shorebirds @ Kannapolis Intimidators 5 5 1 1 0 0 0 0 0 0 2 0 0 0 0 0 0 SS 0
96 2013-08-10 A-SALL Delmarva Shorebirds @ Kannapolis Intimidators 5 3 0 0 0 0 0 0 0 0 0 0 2 0 0 0 0 SS 0
97 2013-08-13 A-SALL Delmarva Shorebirds Hagerstown Suns 4 4 0 0 0 0 0 0 0 0 0 0 0 0 0 0 0 SS 1
98 2013-08-14 A-SALL Delmarva Shorebirds Hagerstown Suns 4 4 0 1 1 0 0 0 0 0 1 0 0 0 0 0 0 SS 2
99 2013-08-15 A-SALL Delmarva Shorebirds Hagerstown Suns 3 3 0 0 0 0 0 0 0 0 0 0 0 0 0 0 0 SS 0
100 2013-08-22 A-SALL Delmarva Shorebirds @ Greensboro Grasshoppers 5 5 1 2 1 0 1 3 0 0 0 0 0 0 0 0 0 SS 0
101 2013-08-23 A-SALL Delmarva Shorebirds @ Lakewood BlueClaws 4 4 0 1 0 0 0 1 0 0 1 0 0 0 0 0 1 SS 0
102 2013-08-24 A-SALL Delmarva Shorebirds @ Lakewood BlueClaws 5 5 0 0 0 0 0 0 0 0 1 0 0 0 0 0 0 SS 0
103 2013-08-25 A-SALL Delmarva Shorebirds @ Lakewood BlueClaws 4 4 0 1 0 0 0 2 0 0 2 0 0 0 0 1 0 SS 0
104 2013-08-27 A-SALL Delmarva Shorebirds Kannapolis Intimidators 4 4 0 1 0 0 0 1 0 0 1 0 0 0 0 0 0 SS 0
105 2013-08-28 A-SALL Delmarva Shorebirds Kannapolis Intimidators 5 5 1 0 0 0 0 0 0 0 1 0 0 0 0 2 0 SS 0
106 2013-08-29 A-SALL Delmarva Shorebirds Kannapolis Intimidators 5 5 1 2 1 0 0 0 0 0 1 0 0 0 0 0 0 SS 0
107 2013-08-30 A-SALL Delmarva Shorebirds @ Hickory Crawdads 4 4 0 0 0 0 0 0 0 0 1 0 0 0 0 0 0 SS 0
108 2013-09-02 A-SALL Delmarva Shorebirds @ Hickory Crawdads 3 3 0 0 0 0 0 0 0 0 0 0 0 0 0 0 0 SS 0

2013 Player Batting Splits

Split G PA AB R H 2B 3B HR RBI SB CS BB SO BA OBP SLG OPS TB GDP HBP SH SF IBB
Total 108 422 388 30 103 19 2 4 48 11 4 23 90 .265 .311 .356 .667 138 4 4 4 3 0
Home 53 203 188 16 58 12 0 1 20 8 0 11 52 .309 .351 .388 .740 73 0 2 1 1 0
Away 55 219 200 14 45 7 2 3 28 3 4 12 38 .225 .273 .325 .598 65 4 2 3 2 0
vs RHP as RHB 104 332 308 86 16 2 3 42 15 74 .279 .318 .373 .692 115 3 4 2 3 0
vs LHP as RHB 47 90 80 17 3 0 1 6 8 16 .213 .284 .288 .572 23 1 0 2 0 0
April 20 77 70 1 15 2 1 0 10 3 1 3 17 .214 .260 .271 .531 19 1 2 0 2 0
May 26 99 89 13 28 5 1 1 10 1 1 8 22 .315 .378 .427 .805 38 0 1 1 0 0
June 21 80 75 4 19 5 0 0 11 2 0 4 18 .253 .300 .320 .620 24 2 1 0 0 0
July 22 86 81 4 26 3 0 1 5 2 1 4 18 .321 .353 .395 .748 32 1 0 1 0 0
August 18 77 70 8 15 4 0 2 12 3 1 4 15 .214 .253 .357 .610 25 0 0 2 1 0
September 1 3 3 0 0 0 0 0 0 0 0 0 0 .000 .000 .000 .000 0 0 0 0 0 0
2 outs, RISP 63 90 86 24 3 1 1 23 3 21 .279 .311 .372 .683 32 0 1 0 0 0
vs. Older Pitchers 108 414 380 101 19 2 4 48 23 86 .266 .312 .358 .670 136 4 4 4 3 0
Please note that splits include both major and minor league stats. We have decided that the splits across all levels is more useful than just minor league stats.

About the Minor League Data

Performance data on minor and international leagues is licensed from and provided by the SABR Minor Leagues Database, a community project sponsored by the Minor Leagues Committee of the Society for American Baseball Research.

The database is under active development. Many statistics are incomplete due to ongoing research and/or limitations in published sources. To learn more about these limitations, or to find out how to contribute, click here.

Minor league Total Zone (Rctch&Rtz, 2005-2009) data provided by Baseballprojection.com and Minorleaguesplits.com.